Location: hvezdarna zebrak
(49.8744°N, 13.8989°E)
Time: 19:10:52
(UTC+02:00)

Tiangong - Pass Details

Date: 16 March 2026
Orbit: 376 x 385 km, 41.5° (Epoch: 18 April)

Event Time Altitude Azimuth Distance (km) Brightness Sun altitude
Exits shadow 04:04:45 11° 146° (SE) 1,329 0.7 -21.5°
Drops below altitude 10° 04:05:15 10° 137° (SE) 1,402 0.9 -21.4°
Sets 04:08:18 0° 105° (ESE) 2,262 2.6 -20.9°
